SL-16 DEB, 22451

Orbit data source: Space-Track

SL-16 DEB, 22451 is space debris in LEO originally from a launch on Fri, 25 Dec 1992 UTC launched from the Tyuratam Missile And Space Complex (TTMTR). Debris objects in space refer to the collection of defunct objects orbiting the Earth. Examples of debris include non-operational satellites, rocket bodies, and fragments generated from explosions, collisions, or faulty payload assembly.

Loading next visibility...
Identifier
22451, 1992-093EQ
Orbit
LEO
Country
Flag of CISCIS
Related business
Manufacturer
Unknown
Mission
Spacecraft
Bus & Motor
Unknown
Mass
Unknown
Launch date (UTC)
1992-12-25 (33 years ago)
Launch vehicle
Unknown
Launch site
Tyuratam Missile And Space Complex (TTMTR)
Object type
Payload
Rocket body
Debris
Shape & HBR
Unknown shape, 0.1 m
Radar Cross Section
Small (<0.1 m²)

Expand to show TLE details & history
Last TLE update: 11 hours ago

TLE from 11 hours ago
0 SL-16 DEB
1 22451U 92093EQ  26132.96243021  .00000074  00000-0  83120-4 0  9997
2 22451  71.1375 201.9222 0132052 230.0906 312.4756 13.94339727694770
Epoch: 2026-05-12T23:05Z
TLE epoch observation values (Epoch: 2026-05-12T23:05:53.970Z)
Latitude
-1.47488°
Longitude
165.21938°
Altitude
851.724 km
Speed
7.46 km/s
True Right ascension
01h 29m 41s
True Declination
-1° 27' 58"
Sunlit
Object was in daylight at epoch
Visualization orbit readout
Latitude
Unknown
Longitude
Unknown
Altitude
Unknown
Speed
Unknown
Apparent Right ascension
Unknown
Apparent Declination
Unknown
Sunlit
N/A
Visualization observer readout
Local Sidereal Time
18:41:07
Azimuth
Unknown
Elevation
Unknown
Doppler factor
Unknown
Orbital elements
Apogee altitude
1,007.653 km
Perigee altitude
815.134 km
Semi-major axis
7,289.53 km
Eccentricity
0.01321
Inclination
71.1375°
RAAN
201.9222°
Arg. of periapsis
230.0906°
True anomaly
311.34701°
Mean anomaly
312.4756°
Eccentric anomaly
311.91256°
Mean motion
3.48734 °/min
Orbital period
103.23 mins
BSTAR
0.00008312
Loading maneuver chart data...
Computing Atmospheric mass density...
Loading historical data...
Loading historical data...
Loading historical data...
Loading historical data...
Loading historical data...
Loading historical data...
Loading historical data...

Documentation

Showing up to 5 results
|